Home   Weather   Belém   Past weeks
Flag for Brazil

Past Weather in Belém, Pará, Brazil — Yesterday and Last 2 Weeks

Now
75 °F

Clear.


Feels Like: 74 °F
Forecast: 85 / 73 °F
Wind: 6 mph from Northeast

Location: Belem Aeroporto

Current Time: Jan 17, 2019 at 2:18:24 am

Latest Report: Jan 17, 2019 at 1:00 am


Visibility: 10 mi

Pressure: 29.92 "Hg

Humidity: 94%

Dew Point: 73 °F

Location of BelémLocation

Past Weather in Belém — Graph

°F

Belém Temperature Yesterday

Maximum temperature yesterday: 88 °F (at 2:00 pm)
Minimum temperature yesterday: 72 °F (at 5:00 am)
Average temperature yesterday: 79 °F

High & Low Weather Summary for the Past Weeks

 TemperatureHumidityPressure
High90 °F (Jan 3, 12:00 pm)100% (Jan 3, 5:00 am)30.01 "Hg (Jan 3, 5:00 am)
Low39 °F (Jan 8, 3:20 pm)59% (Jan 3, 12:00 pm)29.77 "Hg (Jan 9, 3:00 pm)
Average78 °F87%29.88 "Hg
* Reported Jan 2 1:00 am — Jan 17 1:00 am, Belém. Weather by CustomWeather, © 2019

Note: Actual official high and low records may vary slightly from our data, if they occured in-between our weather recording intervals... More about our weather records

Advertising

Belém Weather History for the Previous 24 Hours

Scroll right to see more
 ConditionsComfort  
Time TempWeatherWind HumidityBarometerVisibility
1:00 am
Thu, Jan 17
75 °FClear.6 mph94%29.92 "Hg10 mi
12:00 am77 °FClear.8 mph89%29.92 "Hg10 mi
11:00 pm
Wed, Jan 16
77 °FClear.7 mph89%29.95 "Hg10 mi
10:00 pm79 °FClear.8 mph89%29.92 "Hg10 mi
9:00 pm79 °FClear.8 mph89%29.92 "Hg10 mi
8:00 pm79 °FClear.7 mph89%29.92 "Hg10 mi
7:00 pm81 °FPartly cloudy.6 mph89%29.86 "HgN/A
6:00 pm79 °FLight rain. Partly sunny.9 mph84%N/A2 mi
5:53 pm81 °FRain. Partly sunny.10 mph84%N/A1 mi
5:00 pm84 °FBroken clouds.8 mph79%29.86 "HgN/A
4:00 pm86 °FPartly sunny.6 mph70%29.86 "HgN/A
3:00 pm86 °FPartly sunny.9 mph66%29.86 "HgN/A
2:00 pm88 °FPartly sunny.8 mph62%29.89 "HgN/A
1:00 pm86 °FScattered clouds.9 mph66%29.92 "HgN/A
12:00 pm86 °FScattered clouds.6 mph66%29.92 "HgN/A
11:00 am82 °FScattered clouds.8 mph74%29.95 "HgN/A
10:00 am81 °FScattered clouds.12 mph79%29.98 "HgN/A
9:00 am79 °FPartly sunny.10 mph89%29.98 "HgN/A
8:00 am77 °FScattered clouds.7 mph94%29.98 "HgN/A
7:00 am73 °FPartly sunny.5 mph100%29.95 "Hg6 mi
6:00 am73 °FPassing clouds.3 mph94%29.92 "HgN/A
5:00 am72 °FPassing clouds.No wind100%29.89 "HgN/A
4:00 am73 °FPassing clouds.3 mph94%29.89 "HgN/A
3:00 am73 °FPassing clouds.3 mph94%29.89 "HgN/A
2:00 am73 °FPassing clouds.2 mph94%29.89 "HgN/A
Weather by CustomWeather, © 2019

See weather overview